Regional Weather Roundup
Issued by NWS Newport/Morehead, NC

Current Version | Previous Version | Text Only | Print | Product List | Glossary On
Versions: 1 2 3 4 5 6 7 8 9 10 11 12 13 14 15 16 17 18 19 20 21 22 23 24 25 26 27 28 29 30 31 32 33 34 35 36 37 38 39 40 41 42 43 44 45 46 47 48 49 50
000
ASUS42 KMHX 261722
RWRMHX
WEATHER ROUNDUP FOR EASTERN NORTH CAROLINA
NATIONAL WEATHER SERVICE NEWPORT/MOREHEAD CITY NC
1200 PM EST FRI DEC 26 2014

NOTE: "FAIR" INDICATES FEW OR NO CLOUDS BELOW 12,000 FEET
WITH NO SIGNIFICANT WEATHER AND/OR OBSTRUCTIONS TO VISIBILITY

NCZ015>017-031-032-045>047-102-103-261800-
NORTH COAST

CITY           SKY/WX    TMP DP  RH WIND       PRES   REMARKS
EDENTON        SUNNY     52  37  56 W3        30.33F
ELIZABETH CITY SUNNY     56  39  53 SW3       30.32F
KITTY HAWK     SUNNY     52  43  70 W5        30.30F
MANTEO         SUNNY     54  43  66 CALM      30.31F

$$

NCZ045>047-081-094-103-104-261800-
CENTRAL COAST

CITY           SKY/WX    TMP DP  RH WIND       PRES   REMARKS
FRISCO         SUNNY     54  44  69 NW6       30.32F
SWANQUARTER      N/A     54 N/A N/A SW6       30.27F

$$

NCZ095-097-098-100-101-261800-
SOUTHERN COAST

CITY           SKY/WX    TMP DP  RH WIND       PRES   REMARKS
BEAUFORT       SUNNY     56  36  47 NW6       30.33F
CEDAR ISLAND     N/A     52 N/A N/A NW5       30.36F
JACKSONVILLE   SUNNY     56  33  42 E3        30.33F
PINEY ISLAND   SUNNY     58  33  39 NW5       30.33F
WILMINGTON     SUNNY     59  40  49 CALM      30.33F


$$

NCZ011>013-027>030-043-044-078>080-089-090>093-098-261800-
COASTAL PLAIN

CITY           SKY/WX    TMP DP  RH WIND       PRES   REMARKS
AHOSKIE        SUNNY     51  34  52 S3        30.33F
CLINTON        SUNNY     57  37  47 CALM      30.33F
ELIZABETHTOWN  SUNNY     56  34  42 NW3       30.32F
GOLDSBORO      SUNNY     54  41  60 S1        30.32F
GREENVILLE     SUNNY     55  34  44 CALM      30.33F
HAVELOCK       SUNNY     57  35  43 CALM      30.35F
KENANSVILLE    SUNNY     56  33  42 CALM      30.33F
KINSTON        SUNNY     55  36  47 S5        30.34F
NEW BERN       SUNNY     59  35  40 CALM      30.35F
RICHLANDS      SUNNY     57  36  44 CALM      30.32F
ROCKY MOUNT    SUNNY     54  35  48 SW5       30.33F
WASHINGTON     SUNNY     54  34  47 W6        30.33F
WHITEVILLE     SUNNY     57  35  43 NW3       30.32F

$$

AMZ130-135-150-152-154-156-158-170-250-252-270-ANZ085-086-088-633-658-670-261800-
MARINE OBSERVATIONS

STATION/POSITION TIME  TEMP    WIND        PRES    WAVE   SWELL
                       AIR SEA DIR/SP/G            HT/PER HT/PER
                 (UTC) (F)     (DEG/KT/KT) (MB)    (FT/S) (FT/S)
CHESAPEAKE LIGHT 1700   49      80/  4/  4 1027.1
64 E VA BEACH    1700   51 52   20/  4/  4 1026.0    3/ 7   3/ 7
DUCK             1700   51 50  260/  4/  6 1025.6
2 E DUCK         1700      50                N/A     2/ 8   2/13
10 NE DUCK       1700      50                N/A     2/ 7
OREGON INLET     1700   52 53  230/  4/  5 1026.4
13E OREGON INLT  1700      51                N/A     3/ 8   2/13
HATTERAS CG      1700   52 54  310/  5/  5 1027.1
DIAMOND BUOY     1600   58                 1027.4    3/ 8
17 S OCRACOKE    NOT AVBL
CAPE LOOKOUT     1700   55     320/  7/  8 1026.9
BEAUFORT LAB     1700   55 54  350/  3/  5 1026.0
30 SE NEW RIVER  1700   56 60  360/  6/  8 1027.5    2/ 7   2/ 7
5 SE WRIGHTSVLE  NOT AVBL
225 S CAPE HAT   1551   68 74   60/  8/ 10 1025.1    4/ 6   3/ 6
41 SE CHARLESTON 1700   63 73   30/ 10/ 12 1026.0    2/ 8   2/ 8

$$


USA.gov is the U.S. government's official web portal to all federal, state and local government web resources and services.